Home > Weather > Aarau > Past weeks

Flag for Switzerland Past Weather in Aarau, Aargau, Switzerland — Yesterday and Last 2 Weeks

Now
70 °F

Mild.


Feels Like: 72 °F
Forecast: 60 / 70 °F
Wind: 1 mph from Northeast

Location: Wynau

Current Time: Jul 30, 2016 at 10:48:26 PM

Latest Report: Jul 30, 2016 at 10:00 PM


Visibility: N/A

Pressure: 29.91 "Hg

Humidity: 78%

Dew Point: 63 °F

Location of AarauLocation

Past Weather in Aarau — Graph

°F

Aarau Temperature Yesterday

Maximum temperature yesterday: 81 °F (at 5:00 PM)
Minimum temperature yesterday: 60 °F (at 7:00 AM)
Average temperature yesterday: 71 °F

High & Low Weather Summary for the Past Weeks

 TemperatureHumidityPressure
High90 °F (Jul 20, 5:00 PM)100% (Jul 16, 6:00 AM)30.37 "Hg (Jul 16, 6:00 AM)
Low46 °F (Jul 16, 6:00 AM)31% (Jul 19, 5:00 PM)29.87 "Hg (Jul 30, 3:00 PM)
Average69 °F75%30.07 "Hg
* Reported Jul 15 9:00 PM — Jul 30 9:00 PM, Aarau, Weather by CustomWeather, © 2016

Note: Actual official high and low records may vary slightly from our data, if they occured in-between our weather recording intervals... More about our weather records

Advertising

Aarau Weather History for the Previous 24 Hours

Scroll right to see more
 ConditionsComfort  
Time TempWeatherWind HumidityBarometerVisibility
9:00 PM
Sat, Jul 30
74 °FMild.5 mph66%29.90 "HgN/A
8:00 PM76 °FMild.6 mph62%29.89 "HgN/A
7:00 PM78 °FWarm.9 mph53%29.88 "HgN/A
6:00 PM80 °FWarm.6 mph51%29.89 "HgN/A
5:00 PM81 °FWarm.13 mph46%29.90 "HgN/A
4:00 PM83 °FWarm.12 mph42%29.88 "HgN/A
3:00 PM85 °FPleasantly warm.16 mph40%29.87 "HgN/A
2:00 PM83 °FWarm.10 mph47%29.88 "HgN/A
1:00 PM82 °FWarm.7 mph51%29.90 "HgN/A
12:00 PM79 °FWarm.6 mph55%29.92 "HgN/A
11:00 AM75 °FMild.5 mph65%29.93 "HgN/A
10:00 AM71 °FMild.3 mph75%29.96 "HgN/A
9:00 AM67 °FMild.2 mph82%29.98 "HgN/A
8:00 AM63 °FMild.1 mph92%30.00 "HgN/A
7:00 AM60 °FCool.1 mph95%30.00 "HgN/A
6:00 AM59 °FCool.No wind96%30.00 "HgN/A
5:00 AM60 °FCool.1 mph98%30.00 "HgN/A
4:00 AM60 °FCool.1 mph96%30.01 "HgN/A
3:00 AM62 °FCool.No wind95%30.00 "HgN/A
2:00 AM62 °FCool.No wind94%30.00 "HgN/A
1:00 AM63 °FMild.No wind94%30.00 "HgN/A
12:00 AM64 °FMild.No wind90%29.99 "HgN/A
11:00 PM
Fri, Jul 29
66 °FMild.1 mph88%29.98 "HgN/A
10:00 PM68 °FMild.1 mph79%29.97 "HgN/A
Weather by CustomWeather, © 2016

See weather overviewHow to use our weather pages